Gage, OK

11:55 PM CDT on May 25, 2017 (GMT -0500)
Gage

Weather History for KGAG - June, 2013

Change the Weather History Date:

Saturday, June 15, 2013

  Actual Average Record
Temperature  
Mean Temperature 79 °F -  
Max Temperature 90 °F 88 °F 108 °F (1953)
Min Temperature 69 °F 62 °F 47 °F (1989)
Cooling Degree Days 14    
Growing Degree Days 29 (Base 50)    
Moisture  
Dew Point 62 °F    
Average Humidity 55    
Maximum Humidity 81    
Minimum Humidity 38    
Precipitation  
Precipitation 0.00 in - - ()
Sea Level Pressure  
Sea Level Pressure 29.86 in    
Wind  
Wind Speed 17 mph (SSW)    
Max Wind Speed 33 mph    
Max Gust Speed 41 mph    
Visibility 10 miles    
Events Rain    
Averages and records for this station are not official NWS values.
T = Trace of Precipitation, MM = Missing Value Source: NWS Daily Summary

Daily Weather History Graph

Daily Weather History Graph

Search for Another Location

Airport or City:

Trip Planner

Search our weather history database for the weather conditions in past years. The results will help you decide how hot, cold, wet, or windy it might be!

Date:

Astronomy

Jun. 15, 2013 Rise Set
Actual Time 6:21 AM CDT 8:58 PM CDT
Civil Twilight 5:50 AM CDT 9:28 PM CDT
Nautical Twilight 5:12 AM CDT 10:06 PM CDT
Astronomical Twilight 4:30 AM CDT 10:48 PM CDT
Moon 12:47 PM CDT (6/15) 12:44 AM CDT (6/15)
Length of Visible Light 15h 38m
Length of Day
14h 37m
Waxing Crescent, 40% of the Moon is Illuminated
Jun 15
Waxing Crescent
Jun 16
First Quarter
Jun 23
Full
Jun 29
Last Quarter
Jul 8
New

Hourly Weather History & Observations

Time (CDT) Temp. Heat Index Dew Point Humidity Pressure Visibility Wind Dir Wind Speed Gust Speed Precip Events Conditions
12:53 AM 77.0 °F - 60.1 °F 56% 29.88 in 10.0 mi SSW 15.0 mph - N/A   Clear
1:53 AM 75.9 °F - 60.1 °F 58% 29.88 in 10.0 mi SSW 19.6 mph 32.2 mph N/A   Clear
2:53 AM 73.9 °F - 59.0 °F 59% 29.88 in 10.0 mi SSW 16.1 mph - N/A   Overcast
3:53 AM 71.1 °F - 61.0 °F 70% 29.89 in 10.0 mi SSW 12.7 mph 21.9 mph 0.00 in Rain Light Rain
4:53 AM 69.1 °F - 63.0 °F 81% 29.88 in 10.0 mi SSW 9.2 mph - 0.00 in   Mostly Cloudy
5:53 AM 70.0 °F - 63.0 °F 78% 29.89 in 10.0 mi South 8.1 mph - N/A   Overcast
6:53 AM 70.0 °F - 63.0 °F 78% 29.91 in 10.0 mi SSW 6.9 mph - N/A   Overcast
7:53 AM 73.0 °F - 63.0 °F 71% 29.92 in 10.0 mi SSW 10.4 mph - N/A   Overcast
8:53 AM 77.0 °F - 64.0 °F 64% 29.91 in 10.0 mi SW 18.4 mph 25.3 mph N/A   Scattered Clouds
9:53 AM 81.0 °F 81.9 °F 62.1 °F 52% 29.92 in 10.0 mi SSW 23.0 mph 41.4 mph N/A   Clear
10:53 AM 82.9 °F 83.7 °F 62.1 °F 49% 29.92 in 10.0 mi South 29.9 mph 38.0 mph N/A   Clear
11:53 AM 84.9 °F 85.4 °F 62.1 °F 46% 29.91 in 10.0 mi South 26.5 mph 33.4 mph N/A   Clear
12:53 PM 86.0 °F 86.3 °F 62.1 °F 44% 29.89 in 10.0 mi South 33.4 mph 40.3 mph N/A   Mostly Cloudy
1:53 PM 84.9 °F 85.4 °F 62.1 °F 46% 29.87 in 10.0 mi South 29.9 mph 39.1 mph N/A   Partly Cloudy
2:53 PM 87.1 °F 87.8 °F 63.0 °F 44% 29.85 in 10.0 mi South 20.7 mph 28.8 mph N/A   Clear
3:53 PM 88.0 °F 88.7 °F 63.0 °F 43% 29.84 in 10.0 mi SSW 19.6 mph 27.6 mph N/A   Partly Cloudy
4:53 PM 89.1 °F 89.3 °F 62.1 °F 40% 29.81 in 10.0 mi South 19.6 mph 24.2 mph N/A   Partly Cloudy
5:53 PM 89.1 °F 89.3 °F 62.1 °F 40% 29.80 in 10.0 mi South 17.3 mph 24.2 mph N/A   Clear
6:53 PM 89.1 °F 88.8 °F 60.1 °F 38% 29.78 in 10.0 mi South 16.1 mph - N/A   Clear
7:53 PM 86.0 °F 85.7 °F 60.1 °F 41% 29.79 in 10.0 mi South 12.7 mph 21.9 mph N/A   Clear
8:53 PM 82.0 °F 82.4 °F 60.1 °F 47% 29.81 in 10.0 mi South 10.4 mph - N/A   Clear
9:53 PM 79.0 °F - 62.1 °F 56% 29.83 in 10.0 mi South 15.0 mph - N/A   Clear
10:53 PM 78.1 °F - 62.1 °F 58% 29.85 in 10.0 mi South 17.3 mph - N/A   Clear
11:53 PM 75.9 °F - 62.1 °F 62% 29.84 in 10.0 mi SSE 17.3 mph - N/A   Clear